Tracking 29892 objects as of 21-Nov-2024
HD Live streaming from Space Station
objects crossing your sky now

CZ-4 DEB

Track CZ-4 DEB now!
10-day predictions


NORAD ID: 35383
Int'l Code: 2003-049K
Perigee: 671.0 km
Apogee: 742.8 km
Inclination: 98.6 °
Period: 98.8 minutes
Semi major axis: 7077 km
RCS: 0.0214 m2 (small)
Launch date: October 21, 2003
Source: People's Republic of China (PRC)
Launch site: Taiyaun Space Center, China (TSC)

Note: This is SATELLITE DEBRIS
Your satellite tracking list
Your tracking list is empty




NASA's NSSDC Master Catalog

Two Line Element Set (TLE):
1 35383U 03049K   24324.78337383  .00000874  00000-0  19825-3 0  9992
2 35383  98.6119 298.5142 0050680 108.5872 252.0840 14.57958388628587
Source of the keplerian elements: AFSPC